Content
SEND FEEDBACK

Daily
Averages
Monthly
Summary
United States of America

MELROSE, MASSACHUSETTS


Home > North America > United States > Massachusetts
Elevation: 170 feet     Latitude: 42 27N     Longitude: 071 05W

WEATHER
 
SELECT A DAY
Number of Records: 202,471;   Date Range: 1/1/95 - 7/22/14
 
SHARE

PRINT THIS DATA

[ ← Previous Day ]
WEATHER ALMANAC - JULY 3, 2013
[ Next Day → ]
[ °C ]   °F
Weather ElementAverageHighLow
Temperature75.3 °F89.1 °F (2:54 pm)62.1 °F (2:54 am)
Dewpoint66.7 °F71.1 °F (7:54 pm)60.1 °F (2:54 am)
Humidity76.6 %100 % (6:13 am)52 % (2:54 pm)
Barometer30.17 in30.20 in (10:54 am)30.13 in (5:54 pm)
Wind Speed10.8 mph19.6 mph (2:54 pm)
Wind Gust29.9 mph (4:54 pm)
Weather ElementAverage
Visibility7.1 mi
Wind DirectionS (182.6 °)

Weather ElementTotal
Precipitation---
Cooling Degree Days10.6 (Base 65)
Growing Degree Days25.6 (Base 50)
Averaged from 27 records on July 3, 2013
WEATHER CONDITIONS BREAKOUT
WIND DIRECTION BREAKOUT
WEATHER BY HOUR - JULY 3, 2013
[ °C ]   °F
Local TimeTemperatureDewpointHumidityBarometerVisibilityWind DirectionWind SpeedGust SpeedPrecipitationEventsConditions
1:54 AM63.0 °F61.0 °F93 %30.19 in3.0 miCalm0.00 inOvercast
2:54 AM62.1 °F60.1 °F93 %30.19 in3.0 miSouth (170°)5.8 mphOvercast
3:54 AM62.1 °F60.1 °F93 %30.19 in4.0 miSSE (150°)4.6 mphOvercast
4:54 AM62.1 °F60.1 °F93 %30.19 in6.0 miSSE (160°)4.6 mphOvercast
5:08 AM62.6 °F60.8 °F94 %30.19 in2.0 miSSE (160°)4.6 mphOvercast
5:20 AM62.6 °F60.8 °F94 %30.18 in0.5 miSSE (150°)4.6 mphFogFog
5:54 AM63.0 °F62.1 °F97 %30.18 in0.2 miSSE (150°)6.9 mphFogFog
6:13 AM62.6 °F62.6 °F100 %30.19 in1.8 miCalmMostly Cloudy
6:38 AM62.6 °F62.6 °F100 %30.19 in3.0 miCalmMostly Cloudy
6:54 AM64.9 °F63.0 °F93 %30.19 in3.0 miCalmMostly Cloudy
7:54 AM73.9 °F68.0 °F82 %30.19 in7.0 miSSW (210°)9.2 mphMostly Cloudy
8:54 AM78.1 °F69.1 °F74 %30.19 in8.0 miWSW (240°)18.4 mphMostly Cloudy
9:54 AM81.0 °F70.0 °F69 %30.19 in10.0 miWSW (240°)13.8 mphScattered Clouds
10:54 AM82.9 °F69.1 °F63 %30.20 in10.0 miWSW (250°)15.0 mphMostly Cloudy
11:54 AM82.0 °F69.1 °F65 %30.19 in10.0 miWSW (250°)16.1 mph24.2 mphMostly Cloudy
12:54 PM86.0 °F70.0 °F59 %30.18 in10.0 miWest (270°)10.4 mphMostly Cloudy
1:54 PM87.1 °F69.1 °F55 %30.17 in10.0 miWSW (250°)16.1 mph23.0 mphMostly Cloudy
2:54 PM89.1 °F69.1 °F52 %30.16 in10.0 miSW (230°)19.6 mph24.2 mphMostly Cloudy
3:54 PM87.1 °F70.0 °F57 %30.14 in10.0 miSW (220°)15.0 mph24.2 mphMostly Cloudy
4:54 PM87.1 °F70.0 °F57 %30.14 in10.0 miWSW (240°)13.8 mph29.9 mphMostly Cloudy
5:54 PM88.0 °F69.1 °F53 %30.13 in10.0 miSW (230°)17.3 mphMostly Cloudy
6:54 PM84.9 °F70.0 °F61 %30.13 in10.0 miSW (220°)17.3 mphMostly Cloudy
7:54 PM82.9 °F71.1 °F67 %30.13 in10.0 miSW (230°)17.3 mph24.2 mphScattered Clouds
8:54 PM81.0 °F71.1 °F72 %30.16 in10.0 miSW (230°)17.3 mph24.2 mphScattered Clouds
9:54 PM80.1 °F71.1 °F74 %30.17 in10.0 miSW (220°)16.1 mphPartly Cloudy
10:54 PM78.1 °F71.1 °F79 %30.17 in10.0 miSW (220°)13.8 mphClear
11:54 PM77.0 °F70.0 °F79 %30.18 in10.0 miWSW (240°)12.7 mphClear
Hourly data recorded from KBOS, located miles away from Melrose, Massachusetts







STORIES FROM OUR PARTNERS